{"data":{"norad_id":51884,"intl_designator":"2022-022AJ","name":"STARLINK-3577","alt_names":[],"object_type":"PAYLOAD","status":"ACTIVE","operator":null,"country":"US","launch_date":"2022-03-03","launch_site_code":"AFETR","launch_vehicle":null,"mission":null,"orbit_class":"UNKNOWN","rcs_meters":null,"size_class":null,"mass_kg":null,"dimensions":null,"purposes":["comms"],"wikipedia_slug":null,"has_3d_model":false,"image_url":null,"decayed_at":null,"tle_current":{"epoch":"2026-05-25T00:28:10.801344Z","epoch_age_seconds":74153,"freshness":"FRESH","line1":"1 51884U 22022AJ  26145.01956946  .00000808  00000+0  68862-4 0  9991","line2":"2 51884  53.2133  16.4613 0001542  79.5449 280.5717 15.08837561234852","mean_motion":15.08837561,"eccentricity":0.0001542,"inclination_deg":53.2133,"raan_deg":16.4613,"arg_perigee_deg":79.5449,"mean_anomaly_deg":280.5717,"bstar":6.8862e-5,"rev_number":23485,"period_min":95.437708950301,"perigee_km":538.68410571586,"apogee_km":540.81758232696,"semimajor_km":6917.8878440214,"source":"CELESTRAK","updated_at":"2026-05-25T13:38:16.986908Z"}}}